Theta_e
317 320 322 323 321 317 310 304 292 311 316 299 299 297 302 303 303 303 300 301 300 299 299 297 296 296 298 301 298 295 297 295 291 292 297 298 297 294 295 290 289 293 292 291
318 318 322 322 319 313 311 299 298 311 310 293 295 300 300 302 301 301 300 299 301 301 298 295 297 297 300 299 298 296 298 294 290 290 294 296 293 294 293 293 296 292 288 290
317 316 317 321 318 315 311 300 292 301 303 301 297 297 297 297 303 301 301 301 301 299 297 298 295 295 298 299 298 300 299 296 293 289 291 294 291 293 293 292 290 291 291 290
316 316 315 319 318 316 309 301 296 299 294 296 298 299 298 297 295 300 301 298 299 298 294 294 293 297 297 297 299 298 297 293 294 294 293 293 292 291 291 290 293 290 292 291
315 316 315 315 314 315 308 300 296 299 297 297 296 296 296 296 298 298 296 297 299 299 296 296 294 297 297 297 297 296 296 292 291 291 295 292 291 293 294 294 295 294 295 293
314 315 315 313 312 314 305 309 306 299 296 296 295 296 295 297 300 299 301 299 299 297 299 301 302 302 301 300 296 295 294 293 292 290 293 293 291 295 295 295 297 296 291 297
313 314 314 314 313 312 312 311 307 297 292 295 295 296 297 297 299 298 301 302 300 302 304 301 300 299 297 297 296 298 293 293 292 289 293 287 294 298 298 297 297 298 296 298
312 313 314 314 314 313 311 307 303 299 295 295 295 296 296 297 300 299 301 302 306 303 301 297 293 293 293 293 293 294 295 294 290 288 290 294 295 296 295 294 295 300 298 299
311 312 313 314 313 312 312 308 307 304 297 297 298 295 297 295 296 298 299 299 304 303 300 297 291 290 293 289 289 293 294 294 291 291 287 286 295 297 299 298 291 301 300 300
310 311 312 313 313 313 311 310 308 302 296 302 301 295 296 300 298 297 297 296 296 301 297 293 292 292 296 290 290 287 289 290 288 290 289 294 300 298 299 289 294 299 301 301
310 311 311 312 312 313 312 308 306 304 298 302 302 302 299 299 300 296 298 295 296 296 295 294 294 293 294 294 296 292 291 290 289 291 289 287 301 297 293 301 302 302 302 303
309 310 311 311 311 312 311 304 306 308 302 301 302 301 302 304 304 301 298 299 298 300 297 298 298 294 296 295 290 297 292 297 295 295 296 302 302 302 303 304 304 303 303 304
308 309 309 310 311 311 311 304 304 304 298 298 299 299 301 305 305 308 298 301 303 302 305 301 298 295 297 293 294 296 297 301 297 296 300 300 302 303 304 304 304 306 306 306
307 308 309 310 310 309 308 304 305 305 301 294 296 305 299 304 305 304 305 305 302 304 303 300 298 296 300 296 298 297 299 298 296 297 300 301 302 303 304 304 305 305 306 306
307 308 309 309 309 310 310 309 306 308 301 291 294 302 302 302 302 300 303 302 301 300 298 298 296 300 298 299 298 296 299 298 296 296 302 302 303 305 306 303 304 305 305 304
307 308 308 309 308 308 305 299 306 307 304 295 289 296 298 299 300 299 300 303 302 301 299 297 299 300 298 296 293 298 301 302 303 301 304 304 305 305 304 303 304 304 304 304
306 307 308 308 308 305 299 297 303 309 304 293 286 288 295 299 299 298 298 301 300 300 298 297 297 297 296 297 292 297 300 301 302 302 302 300 301 301 302 302 303 304 303 303
305 306 307 307 306 304 300 306 305 307 298 295 286 286 290 297 293 292 299 296 298 298 297 298 296 296 296 292 296 298 299 299 299 300 302 301 303 303 303 303 302 301 300 302
305 305 305 302 300 297 301 307 303 301 297 286 286 286 286 295 295 295 296 297 291 298 293 294 295 293 291 294 297 298 298 297 298 299 300 300 300 300 301 302 301 299 300 301
304 301 295 292 298 305 305 299 293 291 290 291 289 296 288 294 292 291 292 295 292 290 293 297 293 292 297 298 298 298 299 299 299 296 296 297 298 298 299 300 301 301 300 301
298 291 292 300 304 301 296 286 286 285 283 286 291 293 290 297 291 290 294 290 291 286 292 290 290 290 295 298 298 299 300 300 300 300 300 300 300 300 300 300 301 301 302 300
295 298 300 299 291 286 285 284 286 285 286 289 291 292 294 294 297 291 291 289 290 285 293 289 286 293 297 297 297 298 300 301 300 301 300 300 300 300 300 300 300 300 301 301
299 294 290 287 285 281 282 280 284 286 288 290 293 289 290 293 295 292 292 287 286 292 287 285 289 297 298 298 298 299 300 300 300 299 301 301 301 301 300 299 300 301 301 300
287 285 282 283 282 284 286 287 287 292 293 292 294 291 291 293 291 291 287 291 289 285 283 287 294 296 297 299 300 300 299 301 301 300 300 300 299 299 299 299 300 299 299 299
285 286 282 283 289 290 290 292 290 292 295 293 292 291 293 292 288 291 287 283 283 286 287 294 298 299 300 299 299 300 300 298 298 299 298 298 298 298 298 299 299 299 299 299
286 285 284 289 287 287 288 289 290 294 294 295 293 288 286 286 288 285 284 285 283 289 294 298 300 300 300 299 299 299 300 299 298 297 297 297 297 297 298 298 299 299 299 298
285 284 290 290 290 289 290 291 292 295 292 287 288 284 285 290 286 285 290 288 293 297 297 298 300 300 299 300 299 298 299 298 298 297 297 297 298 298 297 296 298 299 299 298
Wind_Speed
17 18 27 25 22 15 7 6 8 8 9 9 9 14 12 2 11 6 4 4 6 8 7 5 4 2 2 3 1 4 4 6 5 2 4 1 3 4 6 5 6 4 5 5
14 16 23 27 25 23 8 6 6 4 8 10 14 11 6 8 10 10 9 9 7 4 7 5 5 4 4 4 3 3 2 4 6 9 5 4 5 1 4 6 5 7 5 6
8 8 18 25 31 30 5 7 8 6 8 12 14 18 15 11 10 9 6 7 8 8 7 4 5 5 4 4 3 2 2 7 8 8 7 5 9 8 6 6 5 9 3 5
11 8 11 13 29 30 11 8 13 12 12 17 16 16 12 19 10 8 12 7 12 11 7 7 6 7 6 5 5 4 5 7 6 11 11 11 14 12 11 13 12 7 8 6
18 15 13 15 13 31 10 11 9 7 12 21 25 17 20 21 18 17 12 12 17 14 8 8 10 11 8 5 8 6 5 5 6 12 6 4 10 9 10 12 12 12 13 12
20 18 13 12 14 21 7 7 7 6 12 16 19 25 24 23 17 14 13 18 11 16 14 6 6 4 4 1 5 8 5 4 5 4 2 8 12 3 11 12 7 9 6 6
20 19 16 15 14 8 4 9 6 7 12 15 18 19 23 21 24 15 15 12 15 7 16 13 9 7 3 4 5 4 5 6 4 5 9 5 5 3 2 9 6 8 6 3
21 20 18 17 16 21 9 3 5 10 14 15 20 18 16 19 11 18 15 12 11 18 16 7 6 4 4 5 1 7 7 5 5 5 4 11 1 5 4 7 5 9 11 8
22 20 20 18 13 12 7 4 3 8 12 21 20 16 15 12 14 12 8 4 15 18 6 7 10 8 6 7 6 2 7 8 5 3 4 3 6 6 3 1 7 4 8 10
22 20 19 19 14 15 9 3 8 3 8 13 14 13 17 13 13 12 11 12 7 7 8 8 8 9 2 9 10 8 7 7 11 9 5 7 4 8 5 4 4 2 7 9
21 20 18 19 15 14 8 4 12 9 7 9 17 13 13 14 15 13 12 10 8 7 10 8 6 7 9 7 9 10 10 10 6 7 6 8 12 7 6 5 4 5 7 7
19 19 16 19 14 14 4 3 8 6 4 3 1 8 13 10 16 7 16 7 18 9 9 8 5 4 5 9 7 9 8 8 5 10 5 5 15 2 7 3 5 5 7 7
14 16 16 18 14 10 10 2 7 4 3 3 4 14 11 5 6 9 8 8 11 12 3 6 5 6 9 9 11 10 11 9 4 4 11 12 10 12 7 8 8 6 7 7
15 17 17 15 13 10 6 2 6 2 4 3 4 1 9 4 5 8 10 11 4 8 5 5 4 5 7 9 5 12 5 14 13 10 9 2 9 14 14 12 12 12 11 11
15 17 16 13 16 14 5 5 6 4 3 4 3 7 8 2 4 5 7 16 12 9 6 6 6 3 5 1 3 10 9 10 11 8 8 11 8 11 13 12 12 13 13 12
15 16 14 12 12 10 3 3 5 9 2 4 4 3 9 7 6 3 9 10 8 6 5 6 5 5 6 6 10 16 17 15 16 15 13 10 12 7 7 11 12 12 12 12
15 13 11 10 11 5 2 1 3 12 4 5 3 4 3 14 11 3 2 4 2 3 4 5 7 6 5 6 13 7 15 15 15 15 15 16 21 10 11 15 13 11 11 10
8 8 8 9 10 4 2 6 5 4 5 1 5 4 4 10 10 11 6 5 4 3 4 2 8 5 5 10 13 18 21 15 13 19 16 19 18 15 13 13 10 12 12 12
11 5 17 4 1 3 2 17 13 3 1 5 4 8 6 7 5 4 5 4 6 2 6 8 8 9 14 9 14 17 21 19 19 20 17 21 21 19 19 16 15 15 15 15
14 5 3 4 5 23 13 2 3 1 1 2 3 4 6 13 6 5 6 3 4 5 8 5 9 18 19 15 9 14 16 19 18 20 21 23 20 19 22 22 17 15 15 13
2 3 3 4 10 4 2 3 4 4 3 4 4 7 13 9 11 8 6 7 7 6 8 9 8 12 16 21 20 24 21 20 19 21 21 19 20 18 17 17 16 12 13 13
7 1 5 3 3 2 4 4 3 4 3 4 9 11 8 6 4 5 3 6 7 8 8 5 7 5 9 21 30 26 25 23 23 22 21 20 20 19 17 15 13 12 11 12
2 3 3 2 2 4 7 9 5 4 6 8 12 14 5 4 2 4 5 9 9 7 6 7 5 4 12 12 15 19 19 18 19 20 20 19 18 17 15 12 11 11 9 9
3 3 7 5 6 6 5 2 3 4 7 10 13 9 6 5 6 5 6 2 5 6 8 7 5 16 10 13 12 13 14 14 15 14 12 12 13 12 12 12 10 10 9 9
3 4 6 7 3 4 2 2 4 6 6 12 12 4 3 5 5 3 5 4 7 10 5 4 7 10 12 10 10 11 10 11 10 9 10 10 11 10 10 10 9 10 10 11
2 3 2 2 4 5 5 5 5 4 8 12 3 5 5 4 4 8 10 8 9 4 5 2 3 8 8 8 7 8 10 10 9 9 9 9 10 10 9 9 9 10 10 10
4 4 5 3 2 2 4 4 4 5 9 6 4 6 5 7 6 7 7 6 5 2 2 4 6 7 6 7 8 9 10 10 10 10 10 9 9 9 10 10 9 9 9 8
Wind_Direction
299 275 201 195 181 161 188 232 221 147 180 203 214 228 215 163 176 179 173 240 231 204 178 197 221 225 37 115 267 294 46 314 281 15 96 234 310 339 324 327 348 302 263 75
273 287 212 192 171 164 187 218 192 173 203 214 212 216 192 209 175 192 182 188 197 182 188 205 212 189 87 146 228 326 56 199 276 156 169 176 240 343 294 304 264 274 312 72
259 315 309 202 173 178 211 231 193 163 210 249 242 206 209 197 204 194 191 160 160 167 187 183 175 205 155 182 230 10 288 266 268 300 344 315 285 289 235 287 274 344 299 360
245 255 289 236 185 185 175 222 223 189 192 208 214 226 204 199 177 214 188 183 200 179 177 180 203 205 150 182 160 211 253 264 267 279 280 277 279 273 265 242 256 280 359 316
252 240 241 269 291 179 232 196 224 210 227 198 204 211 213 205 184 169 193 223 196 193 184 194 186 175 195 197 178 199 196 279 288 286 251 247 262 258 245 243 253 260 274 283
260 248 233 254 282 187 164 257 207 240 208 207 196 212 209 202 184 204 194 200 182 199 204 155 108 132 118 141 187 201 219 275 297 271 205 280 261 271 229 229 230 232 256 52
260 252 230 232 214 257 233 192 213 213 229 203 213 210 213 209 199 182 190 189 190 147 112 106 97 100 126 207 202 261 224 239 277 284 298 234 85 87 350 219 243 225 238 184
254 250 245 234 232 222 251 159 182 205 226 211 217 212 202 211 198 215 173 196 174 150 149 151 163 166 180 180 222 229 231 228 270 269 290 291 149 167 217 215 242 216 223 190
253 249 242 234 239 244 270 201 276 182 220 223 207 213 194 198 192 191 138 115 159 164 160 187 203 195 197 164 154 173 201 245 256 205 272 266 87 142 155 230 259 142 205 181
253 251 236 234 238 240 215 217 186 117 188 240 222 199 198 191 177 179 148 149 171 204 187 191 202 214 190 168 179 169 168 195 220 230 253 273 144 144 160 230 65 147 188 173
248 249 243 235 240 239 245 235 183 193 186 219 245 239 189 203 195 177 149 142 193 176 200 195 186 225 193 214 164 173 170 173 193 209 219 251 140 135 224 95 114 150 182 177
247 251 247 230 237 247 213 239 192 173 215 209 136 287 295 277 199 144 174 213 156 178 181 191 179 187 160 198 195 196 208 205 191 201 219 118 179 43 173 199 158 171 190 192
250 258 252 228 228 237 212 151 149 148 142 83 163 223 235 275 269 196 155 222 185 180 251 161 193 211 182 183 226 179 222 189 218 171 225 212 205 223 218 211 223 206 199 191
240 256 255 235 226 212 183 198 173 219 109 151 200 204 242 354 286 255 258 157 119 145 173 175 171 209 208 212 242 208 176 160 203 238 245 210 231 226 227 223 231 236 230 227
244 250 249 231 216 213 184 184 195 214 149 155 152 181 224 350 271 236 166 151 147 163 174 200 199 170 175 234 247 214 182 185 191 216 211 211 252 198 214 216 230 233 231 231
250 244 236 224 198 210 170 197 180 196 143 113 162 338 175 206 222 235 180 168 181 192 184 201 205 84 235 200 235 219 201 217 226 241 262 258 257 218 194 215 212 224 226 229
248 231 220 219 187 177 199 195 109 163 145 123 137 121 143 180 201 223 266 256 139 196 189 223 211 189 198 240 232 179 222 225 228 244 254 253 255 237 216 230 236 245 242 235
199 187 177 136 121 86 226 247 139 150 93 22 119 110 146 167 167 177 208 215 208 186 223 177 219 150 213 247 220 226 244 227 226 232 231 242 255 251 227 223 215 217 217 218
132 133 117 99 124 190 192 114 100 55 186 152 148 159 149 174 181 75 174 182 195 85 236 218 188 219 220 222 234 221 234 228 233 237 239 242 244 246 245 229 221 229 233 224
149 138 160 183 182 115 136 120 99 27 333 110 189 156 139 149 146 153 132 199 205 207 207 184 235 245 250 239 220 239 237 233 229 235 227 233 239 239 238 235 240 238 222 231
150 166 208 66 106 149 131 157 177 152 188 163 199 173 145 160 168 148 156 172 177 217 173 200 228 246 226 218 234 240 234 227 236 230 235 239 234 236 238 244 247 241 235 217
170 201 104 153 81 75 174 181 147 198 187 188 165 158 131 122 121 129 203 177 185 226 137 207 243 195 158 199 217 231 235 233 235 236 239 243 247 250 254 247 230 238 238 224
104 210 114 180 144 211 210 166 169 183 174 195 164 145 138 149 124 120 164 181 205 119 197 227 228 177 217 207 212 226 232 233 233 240 241 241 243 240 240 247 234 230 212 216
167 155 140 219 180 211 196 164 14 11 195 177 169 145 134 134 183 136 179 158 133 216 227 225 175 229 212 213 213 217 219 223 225 227 227 228 225 223 219 225 217 218 213 197
162 173 200 196 196 100 140 208 200 240 229 171 158 98 110 121 112 177 103 161 234 217 233 175 230 226 220 215 213 211 200 193 199 193 194 201 198 196 197 202 201 198 195 186
152 222 223 119 166 173 190 237 291 190 221 169 93 122 144 154 150 167 205 191 220 194 224 250 218 205 189 179 185 199 198 190 180 175 176 174 177 178 177 174 180 179 171 173
180 229 232 200 220 160 172 145 227 263 208 179 166 162 152 137 184 205 204 215 170 204 164 218 221 218 205 195 177 172 164 164 163 157 156 152 150 152 152 158 156 146 141 132